Location: Cabeza de los Veneras
(40.2000°N, 5.2000°W)
Time: 02:13:32
(UTC+00:00)

Ariane Rocket - Pass Details

Date: 18 April 2024
Orbit: 758 x 766 km, 98.5° (Epoch: 25 May)

Event Time Altitude Azimuth Distance (km) Brightness Sun altitude
Exits shadow 20:56:54 29° 77° (ENE) 1,365 3.9 -20.4°
Maximum altitude 20:57:20 30° 67° (ENE) 1,352 4.0 -20.4°
Drops below altitude 10° 21:01:40 10° 8° (N) 2,296 5.8 -21.1°
Sets 21:04:12 0° 358° (N) 3,226 6.8 -21.5°
